sat.trackr.live / text

‹ back to catalog

STARLINK-35209

NORAD 65636 · 2025-210Q

PAYLOAD ACTIVE UNKNOWN

§ Identity

Operator
Country
US
Launch date
2025-09-18
Launch site
AFETR
Launch vehicle
Mass (kg)
RCS (m²)

Purposes: comms

External: N2YO · Heavens-Above · Gunter

§ Orbital elements

Epoch: 2026-09-20T21:02:41.562816Z

Period
93.85 min
Inclination
53.1539°
Eccentricity
0.0001782
Mean motion
15.34404696 rev/d
Perigee alt
461.5 km
Apogee alt
463.9 km
Semi-major
6,840.8 km
B*
5.9280e-4
RAAN
116.3068°
Arg perigee
289.4409°
Mean anomaly
70.6401°
Rev number
5,767

§ Raw data

STARLINK-352091 65636U 25210Q   26263.87686994  .00019708  00000+0  59280-3 0  99932 65636  53.1539 116.3068 0001782 289.4409  70.6401 15.34404696 57678

JSON: /api/v1/satellites/65636 · /tle

For live sub-satellite position, see the globe view (requires WebGL).

§ Visibility from observer

Set your observer location to see the next 7 days of passes ≥ 10°. The values pass through the URL so the page stays shareable.

No JS? Fill the form by hand. The geolocation button needs JavaScript.